Terminal Aerodrome Forecast
Issued by NWS Wakefield, VA

Home | Current Version | Previous Version | Text Only | Print | Product List | Glossary On
Versions: 1 2 3 4 5 6 7 8 9 10 11 12 13 14 15 16 17 18 19 20 21 22 23 24 25 26 27 28 29
000
FTUS41 KAKQ 010153 AAA
TAFECG
TAF AMD
KECG 010153Z 0102/0124 05010KT P6SM SCT009 OVC040
      TEMPO 0102/0104 BKN009
     FM010400 09006KT P6SM OVC015
     FM010900 08005KT P6SM OVC008
     FM011300 20007KT P6SM OVC015
     FM011500 19009KT P6SM BKN035=

USA.gov is the U.S. government's official web portal to all federal, state and local government web resources and services.